This demonstration page uses our WeatherBlox Daily Observations layout. Learn more.

38.88101, -77.10428

Hourly Observations for January 10, 2020

Temp ( °F °C ) Dew Point ( °F °C ) Humidity (%) Winds ( mph kmh ) Pressure ( in mb ) Visibility ( mi km ) Precip ( " mm )
12:52 am 00:52 Mostly Cloudy 35 1.7 29 -1.7 78 78 S 7 11 30.64 1038 10 16.0934 0 0
1:52 am 01:52 Mostly Cloudy 36 2.2 30 -1.1 79 79 S 7 11 30.62 1037 10 16.0934 0 0
2:52 am 02:52 Cloudy 36 2.2 30 -1.1 79 79 SSW 3 6 30.61 1037 10 16.0934 0 0
3:52 am 03:52 Cloudy 37 2.8 31 -0.6 79 79 S 9 15 30.59 1036 10 16.0934 0 0
4:52 am 04:52 Cloudy 38 3.3 31 -0.6 76 76 SSW 8 13 30.59 1036 10 16.0934 0 0
5:11 am 05:11 Cloudy 38 3.3 31 -0.6 76 76 SSW 7 11 30.6 1036 10 16.0934 0 0
5:52 am 05:52 Cloudy 39 3.9 31 -0.6 73 73 SSW 6 9 30.61 1037 10 16.0934 0 0
6:52 am 06:52 Cloudy 39 3.9 31 -0.6 73 73 S 5 7 30.6 1036 10 16.0934 0 0
7:52 am 07:52 Cloudy 39 3.9 32 0 76 76 S 6 9 30.6 1036 10 16.0934 0 0
8:52 am 08:52 Cloudy 40 4.4 33 0.6 77 77 SSW 9 15 30.59 1036 10 16.0934 0 0
8:59 am 08:59 Sunny 41 5 33 0.6 73 73 SSW 9 15 30.6 1036 10 16.0934 0 0
9:18 am 09:18 Cloudy 41 5 33 0.6 73 73 S 9 15 30.6 1036 10 16.0934 0 0
9:52 am 09:52 Cloudy 42 5.6 33 0.6 71 71 S 10 17 30.59 1036 10 16.0934 0 0
10:52 am 10:52 Cloudy 45 7.2 34 1.1 66 66 S 9 15 30.57 1035 10 16.0934 0 0
11:52 am 11:52 Cloudy 47 8.3 36 2.2 66 66 S 10 17 30.54 1034 10 16.0934 0 0
12:52 pm 12:52 Mostly Cloudy 49 9.4 38 3.3 66 66 S 13 20 30.5 1033 10 16.0934 0 0
1:52 pm 13:52 Mostly Cloudy 50 10 40 4.4 68 68 S 12 19 30.47 1032 10 16.0934 0 0
2:52 pm 14:52 Mostly Cloudy 50 10 41 5 71 71 S 12 19 30.46 1031 10 16.0934 0 0
3:52 pm 15:52 Mostly Cloudy 52 11.1 42 5.6 69 69 S 9 15 30.46 1031 10 16.0934 0 0
4:52 pm 16:52 Mostly Cloudy 51 10.6 42 5.6 71 71 S 9 15 30.45 1031 10 16.0934 0 0
5:52 pm 17:52 Mostly Cloudy 54 12.2 44 6.7 69 69 S 10 17 30.45 1031 10 16.0934 0 0
6:52 pm 18:52 Mostly Cloudy 53 11.7 45 7.2 74 74 S 12 19 30.45 1031 10 16.0934 0 0
7:52 pm 19:52 Mostly Cloudy 53 11.7 45 7.2 74 74 SSW 8 13 30.43 1031 10 16.0934 0 0
8:52 pm 20:52 Mostly Cloudy 53 11.7 46 7.8 77 77 S 10 17 30.43 1030 10 16.0934 0 0
9:52 pm 21:52 Mostly Cloudy 54 12.2 47 8.3 77 77 S 12 19 30.42 1030 10 16.0934 0 0
10:52 pm 22:52 Cloudy 52 11.1 46 7.8 80 80 S 9 15 30.42 1030 10 16.0934 0 0
11:52 pm 23:52 Cloudy 51 10.6 46 7.8 83 83 S 10 17 30.41 1030 10 16.0934 0 0

Powered by AerisWeather